Torna al catalogo

STARLINK-35165

AttivoComunicazioniVLEO
NORAD 65750·PAYLOAD·🇺🇸 United States

Lanciato Sep 25, 2025 da Cape Canaveral Space Force Station

Loading…

Prossimi Passaggi (prossime 24 ore)

TLE

AggiornatoSource: CelesTrak SupGP

Epoca: Sep 14, 2026, 23:05 UTC

1 65750C 25216S   26257.96229167 -.00065212  00000+0 -19264-2 0  2571
2 65750  53.1573 171.3067 0001320  85.9511  13.3707 15.34428442    18

Traccia STARLINK-35165 in tempo reale con AllMySat

Download on the App Store